This demonstration page uses our WeatherBlox Daily Observations layout. Learn more.

Left ArrowRight Arrow

39.92423, -83.80882

Hourly Observations for August 14, 2022

Temp ( °F °C ) Dew Point ( °F °C ) Humidity (%) Winds ( mph kmh ) Pressure ( in mb ) Visibility ( mi km ) Precip ( " mm )
12:56 am 00:56 Cloudy 65 18.3 65 18.3 100 100 E 5 7 30.06 1018 10 16 0.00 0.00
1:56 am 01:56 Cloudy 65 18.3 65 18.3 100 100 ESE 7 11 30.05 1018 10 16 0.00 0.00
2:56 am 02:56 Mostly Cloudy 65 18.3 65 18.3 100 100 ESE 6 9 30.03 1017 10 16 0.00 0.00
3:56 am 03:56 Cloudy 63 17.2 N/A N/A E 6 9 30.03 1017 10 16 0.00 0.00
4:56 am 04:56 Clear N/A N/A N/A ESE 7 11 30.07 1018 10 16 0.00 0.00
5:56 am 05:56 Partly Cloudy 61 16.1 N/A N/A ESE 6 9 30.00 1016 10 16 0.00 0.00
6:56 am 06:56 Mostly Cloudy 60 15.6 N/A N/A E 5 7 30.00 1016 10 16 0.00 0.00
7:56 am 07:56 Mostly Cloudy 63 17.2 N/A N/A ESE 6 9 29.99 1016 10 16 0.00 0.00
8:56 am 08:56 Cloudy with Light Rain 65 18.3 65 18.3 100 100 S 3 6 30.01 1016 10 16 0.01 0.13
9:56 am 09:56 Mostly Cloudy 66 18.9 66 18.9 100 100 ESE 7 11 30.00 1016 10 16 0.01 0.13
10:56 am 10:56 Cloudy 67 19.4 67 19.4 100 100 SSE 6 9 29.99 1016 10 16 0.00 0.00
11:56 am 11:56 Cloudy 67 19.4 67 19.4 100 100 S 5 7 29.99 1016 10 16 0.01 0.25
12:56 pm 12:56 Cloudy 69 20.6 66 18.9 90 90 S 6 9 29.97 1015 10 16 0.00 0.00
1:56 pm 13:56 Cloudy 71 21.7 66 18.9 84 84 S 6 9 29.95 1014 10 16 0.00 0.00
2:56 pm 14:56 Cloudy 71 21.7 64 17.8 79 79 ESE 7 11 29.95 1014 10 16 0.00 0.00
3:56 pm 15:56 Cloudy 73 22.8 65 18.3 76 76 SE 12 19 29.92 1013 10 16 0.00 0.00
4:56 pm 16:56 Cloudy 72 22.2 65 18.3 79 79 ESE 9 15 29.90 1013 10 16 0.00 0.00
5:56 pm 17:56 Cloudy 72 22.2 65 18.3 79 79 SE 10 17 29.92 1013 10 16 0.00 0.00
6:56 pm 18:56 Cloudy 70 21.1 65 18.3 84 84 SE 9 15 29.93 1014 10 16 0.00 0.00
7:56 pm 19:56 Cloudy 69 20.6 69 20.6 100 100 SE 6 9 29.93 1014 10 16 0.00 0.00
8:04 pm 20:04 Cloudy 70 21 70 21 100 100 SE 7 11 29.91 1013 10 16 0.00 0.00
8:56 pm 20:56 Cloudy with Light Rain 67 19.4 N/A N/A ESE 8 13 29.94 1014 10 16 0.01 0.13
9:14 pm 21:14 Cloudy N/A N/A N/A SE 7 11 30.00 1016 10 16 0.01 0.13
9:37 pm 21:37 Cloudy 66 19 N/A N/A SE 5 7 29.93 1014 10 16 0.01 0.13
9:46 pm 21:46 Cloudy 66 19 N/A N/A ESE 7 11 29.93 1014 10 16 0.01 0.13
9:56 pm 21:56 Cloudy 66 18.9 N/A N/A E 6 9 29.95 1014 10 16 0.01 0.13
10:08 pm 22:08 Cloudy 66 19 N/A N/A E 6 9 29.93 1014 10 16 0.00 0.00
10:56 pm 22:56 Cloudy 65 18.3 N/A N/A ESE 6 9 29.95 1014 10 16 0.00 0.00
11:52 pm 23:52 Cloudy 64 18 N/A N/A ESE 6 9 29.94 1014 10 16 0.00 0.00
11:56 pm 23:56 Mostly Cloudy 65 18.3 N/A N/A ESE 6 9 29.95 1014 10 16 0.00 0.00

Powered by AerisWeather